Location: Ústí nad Labem
(50.6611°N, 14.0531°E)
Time: 11:21:06
(UTC+02:00)

Envisat - Pass Details

Date: 05 March 2024
Orbit: 762 x 764 km, 98.3° (Epoch: 21 April)

Event Time Altitude Azimuth Distance (km) Brightness Sun altitude
Rises 03:48:15 0° 13° (NNE) 3,244 6.8 -27.2°
Reaches altitude 10° 03:50:34 10° 13° (NNE) 2,313 5.9 -26.8°
Enters shadow 03:55:37 83° 299° (WNW) 778 2.8 -26.1°
